PISAT

Last updated on Thu Oct 30 2025 00:03:36 GMT+0000 (Coordinated Universal Time)

1 41784U 16059B 25302.46100970 .00001574 00000+0 27907-3 0 9998 2 41784 97.8175 307.9873 0028301 220.4275 139.4828 14.68330283485871
UTC large
Height (km)
Speed (km/s)
/
Latitude / Longitude
Inclination (degrees)
Orbital Period (minutes)
Azimuth
Elevation
Range (km)
Doppler Factor

Next 0 passes for location: London (51.5072 / 0.1276)

Sorry there are no passes over London.